Location: Firdgum
(53.2488°N, 5.5615°E)
Time: 18:24:26
(UTC+00:00)

ATLAS 5 CENTAUR R/B - Pass Details

Date: 08 December 2019
Orbit: 550 x 1109 km, 63.4° (Epoch: 16 January)

Event Time Altitude Azimuth Distance (km) Brightness Sun altitude
Exits shadow 03:19:59 18° 70° (ENE) 1,594 4.2 -37.2°
Drops below altitude 10° 03:21:33 10° 59° (ENE) 2,133 5.0 -36.9°
Sets 03:24:15 0° 50° (NE) 3,149 5.9 -36.6°
